STARLINK-1152 (45096 NORAD) Tracking and Keplerian Element Data

This shows tracking and keplerian element data for the satellite.

Feedback or suggestion? Click here.




ElementValue
Catalog45096
NameSTARLINK-1152
Epoch Orbit325
Epoch Day47.91667824
Epoch Year2020
RAAN144.3868
Inclination52.9972
Eccentricity0.0001239
Argument of Perigee5.9739
Mean Anonmoly241.2504
Mean Motion15.73164423
Decay Rate0.00428811
L11 45096U 20006BE 20047.91667824 .00428811 00000-0 29101-2 0 9997
L22 45096 52.9972 144.3868 0001239 5.9739 241.2504 15.73164423 3256

Live tracking and technical data element details for STARLINK-1152 (NORAD 45096). STARLINK-1152 can be tracked NOW for your location showing map with azimuth and elevation plus other details from your city location.

Track the satellite on the map from your city or location and see movement details for azimuth, elevation, latitude, longitude, range, height, and movement on the map or in text.







IsCatalogInMostPopularTable: catalog: 45096, numindb: -1

Insert: records affected: 1


GetName: 45096 STARLINK-1152

Hit Count: inserted at: Tue, 18 Feb 2020 01:00:17 GMT